Other Public Products
Issued by NWS Charleston, SC

Home | Current Version | Previous Version | Text Only | Print | Product List | Glossary On
Versions: 1 2 3 4 5 6 7 8 9 10 11 12 13 14 15 16 17 18 19 20 21 22 23 24 25 26 27 28 29 30 31 32 33 34 35 36 37 38 39 40 41 42 43 44 45 46 47 48 49 50
370
FPUS82 KCHS 201827
OPUCHS

TEST...KCHS/KSAV Gateway Observations...TEST
National Weather Service Charleston SC
200 PM EDT FRI OCT 20 2017

NOTE: "fair" indicates few or no clouds below 12,000 feet with no
significant weather and/or obstructions to visibility.

SCZ050-WAZ558-NCZ071-TXZ119-213-PAZ071-DCZ001-FLZ074-172-MI076-
NYZ176-178-MAZ016-IL014-TNZ027-NJZ106-GAZ044-MD014-201900-

...Gateway Observations for Charleston International...

CITY           SKY/WX    TMP DP  RH WIND       PRES   REMARKS
Chas Airport   MOSUNNY   79  56  45 VRB5      30.21F
6HR MIN TEMP:  56; 6HR MAX TEMP:  79;

Seattle        CLOUDY    48  46  93 S13       29.74R
6HR MIN TEMP:  46; 6HR MAX TEMP:  49; 6HR PCP:  0.13;

Charlotte      MOSUNNY   78  44  29 NE3       30.25F
6HR MIN TEMP:  46; 6HR MAX TEMP:  79;

Dallas DFW     PTSUNNY   77  68  73 S15       30.02F
6HR MIN TEMP:  62; 6HR MAX TEMP:  78; 6HR PCP: TRACE;

Dallas Love    CLOUDY    74  65  73 SE14      30.05F
6HR MIN TEMP:  65; 6HR MAX TEMP:  75; 6HR PCP: TRACE;

Philladelphia  MOSUNNY   73  37  27 NW12      30.17F
6HR MIN TEMP:  58; 6HR MAX TEMP:  73;

Wash National  PTSUNNY   76  46  34 NW13      30.22F
6HR MIN TEMP:  59; 6HR MAX TEMP:  76;

Baltimore      MOSUNNY   73  46  38 VRB5      30.20F
6HR MIN TEMP:  55; 6HR MAX TEMP:  74;

Miami          PTSUNNY   87  74  64 E16G24    30.00F HX  95
6HR MIN TEMP:  80; 6HR MAX TEMP:  89;

Detroit        MOSUNNY   69  39  33 S8        30.24F
6HR MIN TEMP:  41; 6HR MAX TEMP:  70;

Newark         MOSUNNY   75  28  17 W14G21    30.11F
6HR MIN TEMP:  57; 6HR MAX TEMP:  75;

Laguardia      SUNNY     72  32  23 NW12      30.10F
6HR MIN TEMP:  62; 6HR MAX TEMP:  72;

J F K          MOSUNNY   74  27  17 NW15G22   30.11F
6HR MIN TEMP:  59; 6HR MAX TEMP:  74;

Boston Logan   MOSUNNY   69  36  29 NW9       30.00F
6HR MIN TEMP:  60; 6HR MAX TEMP:  69;

Ft. Lauderdale PTSUNNY   84  76  76 E16       30.00F HX  93
6HR MIN TEMP:  80; 6HR MAX TEMP:  86;

Chicago O`Hare PTSUNNY   74  52  46 S12       30.12F
6HR MIN TEMP:  51; 6HR MAX TEMP:  74;

Chicago Midway MOSUNNY   76  53  44 SW15      30.13F
6HR MIN TEMP:  56; 6HR MAX TEMP:  76;

Houston Bush   PTSUNNY   79  73  82 SE14      30.04F
6HR MIN TEMP:  70; 6HR MAX TEMP:  80;

Houston Hobby  LGT RAIN  79  71  76 E15       30.03F
6HR MIN TEMP:  72; 6HR MAX TEMP:  81; 6HR PCP: TRACE;

Nashville      PTSUNNY   75  47  36 E7        30.25F
6HR MIN TEMP:  45; 6HR MAX TEMP:  75;

Atlanta        MOSUNNY   77  37  23 VRB3      30.25F
6HR MIN TEMP:  50; 6HR MAX TEMP:  77;


$$

GAZ044-118-TXZ119-213-NCZ071-DCZ001-MDZ014-506-PAZ021-071-NJZ106-
NYZ176-178-MAZ106-OHZ011-021-055-MIZ076-KYZ091-ILZ014-INZ047-
MNZ060-ONZ431-201900-

...Gateway Observations for Savannah International...

CITY           SKY/WX    TMP DP  RH WIND       PRES   REMARKS
Savannah Arpt  SUNNY     81  61  50 VRB7      30.21F
6HR MIN TEMP:  55; 6HR MAX TEMP:  81;

Atlanta        MOSUNNY   77  37  23 VRB3      30.25F
6HR MIN TEMP:  50; 6HR MAX TEMP:  77;

Charlotte      MOSUNNY   78  44  29 NE3       30.25F
6HR MIN TEMP:  46; 6HR MAX TEMP:  79;

Dallas DFW     PTSUNNY   77  68  73 S15       30.02F
6HR MIN TEMP:  62; 6HR MAX TEMP:  78; 6HR PCP: TRACE;

Houston Bush   PTSUNNY   79  73  82 SE14      30.04F
6HR MIN TEMP:  70; 6HR MAX TEMP:  80;

Wash National  PTSUNNY   76  46  34 NW13      30.22F
6HR MIN TEMP:  59; 6HR MAX TEMP:  76;

Wash Dulles    MOSUNNY   74  39  28 N13       30.22F
6HR MIN TEMP:  47; 6HR MAX TEMP:  74;

Baltimore      MOSUNNY   73  46  38 VRB5      30.20F
6HR MIN TEMP:  55; 6HR MAX TEMP:  74;

Philadelphia   MOSUNNY   73  37  27 NW12      30.17F
6HR MIN TEMP:  58; 6HR MAX TEMP:  73;

Newark         MOSUNNY   75  28  17 W14G21    30.11F
6HR MIN TEMP:  57; 6HR MAX TEMP:  75;

Laguardia      SUNNY     72  32  23 NW12      30.10F
6HR MIN TEMP:  62; 6HR MAX TEMP:  72;

J F K          MOSUNNY   74  27  17 NW15G22   30.11F
6HR MIN TEMP:  59; 6HR MAX TEMP:  74;

Boston         MOSUNNY   69  36  29 NW9       30.00F
6HR MIN TEMP:  60; 6HR MAX TEMP:  69;

Pittsburg      MOSUNNY   69  25  19 VRB3      30.28F
6HR MIN TEMP:  46; 6HR MAX TEMP:  70;

Akron          MOSUNNY   70  37  29 VRB3      30.27F
6HR MIN TEMP:  48; 6HR MAX TEMP:  70;

Cleveland      MOSUNNY   74  40  29 S7        30.27F
6HR MIN TEMP:  44; 6HR MAX TEMP:  74;

Cincinnati     MOSUNNY   73  55  53 VRB6      30.25F
6HR MIN TEMP:  47; 6HR MAX TEMP:  73;

Columbus       SUNNY     71  42  34 CALM      30.25F
Detroit        MOSUNNY   69  39  33 S8        30.24F
6HR MIN TEMP:  41; 6HR MAX TEMP:  70;

Chicago O`Hare PTSUNNY   74  52  46 S12       30.12F
6HR MIN TEMP:  51; 6HR MAX TEMP:  74;

Minneapolis    MOSUNNY   75  51  43 S18G26    29.83F
6HR MIN TEMP:  53; 6HR MAX TEMP:  75;

Indianapolis   MOSUNNY   74  52  46 SE7       30.22F
6HR MIN TEMP:  50; 6HR MAX TEMP:  74;

Toronto Canada MOSUNNY   68  39  34 S8        30.19F

$$




USA.gov is the U.S. government's official web portal to all federal, state and local government web resources and services.